FW9475 Weather Reports


Display with metric or nautical units.
time (UTC)temp
F
wind
direction
speed
MPH
gust
MPH
rain 1hr
in
rain 24hr
in
rain mn
in
humidity
%
barometer
mb
20260510174603 57 32 2.0 8.0 0.00 0.00 0.00 48 1021.0
20260510173054 58 68 4.0 10.0 0.00 0.00 0.00 47 1021.2
20260510171559 58 70 0.0 10.0 0.00 0.00 0.00 49 1021.4
20260510170058 59 58 1.0 9.0 0.00 0.00 0.00 46 1021.5
20260510164605 58 162 3.0 17.0 0.00 0.00 0.00 49 1021.7
20260510163137 58 10 1.0 11.0 0.00 0.00 0.00 49 1021.8
20260510161555 60 40 1.0 8.0 0.00 0.00 0.00 50 1021.9
20260510160101 59 88 1.0 11.0 0.00 0.00 0.00 50 1022.2
20260510154600 59 183 1.0 10.0 0.00 0.00 0.00 50 1022.2
20260510153102 60 55 1.0 10.0 0.00 0.00 0.00 51 1022.3
20260510151625 59 18 2.0 11.0 0.00 0.00 0.00 50 1022.5
20260510150100 60 102 2.0 7.0 0.00 0.00 0.00 52 1022.6
20260510144614 59 196 2.0 12.0 0.00 0.00 0.00 52 1022.8
20260510143105 59 65 3.0 16.0 0.00 0.00 0.00 54 1023.0
20260510141558 58 50 2.0 15.0 0.00 0.00 0.00 56 1023.1
20260510140053 57 311 2.0 12.0 0.00 0.00 0.00 57 1023.3
20260510134557 58 230 0.0 8.0 0.00 0.00 0.00 59 1023.2
20260510133053 58 78 2.0 12.0 0.00 0.00 0.00 58 1023.4
20260510131555 58 333 2.0 10.0 0.00 0.00 0.00 58 1023.6
20260510130054 56 38 3.0 13.0 0.00 0.00 0.00 63 1023.6
20260510124601 55 73 3.0 16.0 0.00 0.00 0.00 64 1023.7
20260510123056 54 0 2.0 16.0 0.00 0.00 0.00 66 1023.9
20260510121554 54 176 2.0 13.0 0.00 0.00 0.00 67 1024.0
20260510120049 53 292 3.0 13.0 0.00 0.00 0.00 68 1024.2
20260510114549 53 86 5.0 17.0 0.00 0.00 0.00 68 1024.5
20260510113051 54 182 3.0 11.0 0.00 0.00 0.00 68 1024.5
20260510111548 54 74 3.0 18.0 0.00 0.00 0.00 69 1024.8
20260510110052 55 35 4.0 14.0 0.00 0.00 0.00 68 1024.9
20260510104551 54 49 4.0 14.0 0.00 0.00 0.00 70 1025.1
20260510103049 53 123 2.0 11.0 0.00 0.00 0.00 73 1025.3
20260510101554 52 333 2.0 11.0 0.00 0.00 0.00 74 1025.4
20260510100109 51 55 2.0 8.0 0.00 0.00 0.00 76 1025.4
20260510094600 51 233 1.0 7.0 0.00 0.00 0.00 77 1025.5
20260510093058 50 193 3.0 10.0 0.00 0.00 0.00 78 1025.6
20260510091550 50 0 2.0 8.0 0.00 0.00 0.00 79 1025.7
20260510090056 49 55 3.0 11.0 0.00 0.00 0.00 80 1025.7
20260510084611 49 63 1.0 6.0 0.00 0.00 0.00 80 1025.8
20260510083053 48 219 2.0 8.0 0.00 0.00 0.00 81 1025.9
20260510081555 48 53 2.0 5.0 0.00 0.00 0.00 81 1026.1
20260510080048 48 80 0.0 8.0 0.00 0.00 0.00 82 1025.9
20260510074549 48 169 2.0 14.0 0.00 0.00 0.00 82 1025.8
20260510073100 49 196 1.0 8.0 0.00 0.00 0.00 82 1025.7
20260510071551 49 19 3.0 12.0 0.00 0.00 0.00 82 1025.7
20260510070055 49 31 1.0 8.0 0.00 0.00 0.00 82 1025.6
20260510064551 49 44 2.0 12.0 0.00 0.00 0.00 83 1025.5
20260510063051 49 5 4.0 13.0 0.00 0.00 0.00 83 1025.5
20260510061551 49 28 1.0 10.0 0.00 0.00 0.00 84 1025.4
20260510060053 49 53 1.0 9.0 0.00 0.00 0.00 84 1025.3
20260510054551 49 187 3.0 13.0 0.00 0.00 0.00 83 1025.3
20260510053051 49 20 0.0 4.0 0.00 0.00 0.00 83 1025.3
20260510051550 49 24 2.0 9.0 0.00 0.00 0.00 83 1025.3
20260510050056 49 19 1.0 5.0 0.00 0.00 0.00 83 1025.4
20260510044558 49 11 1.0 5.0 0.00 0.00 0.00 83 1025.4
20260510043110 49 46 0.0 9.0 0.00 0.00 0.00 84 1025.4
20260510041554 49 0 0.0 5.0 0.00 0.00 0.00 84 1025.5
20260510040057 48 0 1.0 11.0 0.00 0.00 0.00 84 1025.6
20260510034552 48 48 0.0 6.0 0.00 0.00 0.00 85 1025.6
20260510033115 49 33 1.0 3.0 0.00 0.00 0.00 85 1025.7
20260510031558 48 69 1.0 5.0 0.00 0.00 0.00 85 1025.9
20260510030059 48 55 1.0 4.0 0.00 0.00 0.00 85 1025.8
20260510024549 48 0 1.0 10.0 0.00 0.00 0.00 84 1025.9
20260510023049 49 40 2.0 12.0 0.00 0.00 0.00 84 1025.9
20260510021546 48 43 4.0 12.0 0.00 0.00 0.00 83 1025.9
20260510020053 48 53 3.0 14.0 0.00 0.00 0.00 83 1026.0
20260510014551 49 13 1.0 12.0 0.00 0.00 0.00 84 1025.8
20260510013050 49 15 3.0 9.0 0.00 0.00 0.00 84 1025.9
20260510011552 49 21 3.0 11.0 0.00 0.00 0.00 84 1025.9
20260510010050 49 24 2.0 7.0 0.00 0.00 0.00 84 1026.1
20260510004550 49 192 2.0 12.0 0.00 0.00 0.00 84 1025.8
20260510003047 49 227 2.0 8.0 0.00 0.00 0.00 84 1025.8
20260510001550 49 231 1.0 5.0 0.00 0.00 0.00 84 1025.6
20260510000104 50 242 2.0 11.0 0.00 0.00 0.00 84 1025.3
20260509234557 50 223 1.0 8.0 0.00 0.00 0.00 83 1025.3
20260509233050 51 0 2.0 9.0 0.00 0.00 0.00 83 1025.2
20260509231550 51 54 2.0 12.0 0.00 0.00 0.00 82 1025.4
20260509230043 52 186 4.0 16.0 0.00 0.00 0.00 81 1025.3
20260509224549 52 90 1.0 15.0 0.00 0.00 0.00 80 1025.2
20260509223100 52 340 6.0 18.0 0.00 0.00 0.00 79 1025.1
20260509221550 53 30 3.0 10.0 0.00 0.00 0.00 78 1025.2
20260509220049 53 44 2.0 9.0 0.00 0.00 0.00 77 1025.2
20260509214550 54 81 2.0 11.0 0.00 0.00 0.00 77 1025.2
20260509213051 55 0 1.0 4.0 0.00 0.00 0.00 77 1025.1
20260509211551 56 0 0.0 3.0 0.00 0.00 0.00 77 1024.8
20260509210059 57 0 1.0 3.0 0.00 0.00 0.00 76 1024.6
20260509204553 58 0 1.0 4.0 0.00 0.00 0.00 75 1024.6
20260509203050 58 109 0.0 8.0 0.00 0.00 0.00 73 1024.4
20260509201551 59 82 1.0 10.0 0.00 0.00 0.00 72 1024.2
20260509200107 60 177 2.0 10.0 0.00 0.00 0.00 70 1023.9
20260509194551 61 33 1.0 6.0 0.00 0.00 0.00 63 1023.7
20260509193057 62 148 0.0 1.0 0.00 0.00 0.00 55 1023.2
20260509191549 63 0 0.0 0.0 0.00 0.00 0.00 53 1023.3
20260509190047 65 0 0.0 1.0 0.00 0.00 0.00 50 1023.3
20260509184600 66 41 0.0 2.0 0.00 0.00 0.00 48 1023.0
20260509183057 67 224 0.0 7.0 0.00 0.00 0.00 47 1023.0
20260509181619 67 0 0.0 5.0 0.00 0.00 0.00 47 1022.9
20260509180051 66 111 0.0 7.0 0.00 0.00 0.00 46 1022.9